Skip Page Navigation
NASA JPL Caltech
NASA Logo - Jet Propulsion Laboratory + View the NASA Portal
+ Near-Earth Object (NEO) Program
Search JPL
JPL Home Earth Solar System Stars & Galaxies Technology
JPL Solar System Dynamics
BODIES ORBITS EPHEMERIDES TOOLS PHYSICAL DATA DISCOVERY FAQ SITE MAP
JPL Small-Body Database Browser
Search: [ help ]  
52271 Lecorbusier (1988 RP3)
Classification: Main-belt Asteroid          SPK-ID: 2052271
Ephemeris | Orbit Diagram | Orbital Elements | Physical Parameters | Discovery Circumstances ]

[ show orbit diagram ]
Orbital Elements at Epoch 2457000.5 (2014-Dec-09.0) TDB
Reference: JPL 11 (heliocentric ecliptic J2000)
 Element Value Uncertainty (1-sigma)   Units 
e .181190515312522 1.6489e-07  
a 2.587521251951837 3.22e-08 AU
q 2.118686942928582 4.4457e-07 AU
i 13.23456955501163 1.2691e-05 deg
node 357.7200510031171 2.6319e-05 deg
peri 36.45562700767247 3.6812e-05 deg
M 85.97782880159066 2.3342e-05 deg
tp 2456637.415016284595
(2013-Dec-10.91501628)
9.6231e-05 JED
period 1520.28256539467
4.16
2.8379e-05
7.77e-08
d
yr
n .2367980849050538 4.4202e-09 deg/d
Q 3.056355560975092 3.8035e-08 AU
  Orbit Determination Parameters
   # obs. used (total)      673  
   data-arc span      9543 days (26.13 yr)  
   first obs. used      1988-09-08  
   last obs. used      2014-10-25  
   planetary ephem.      DE431  
   SB-pert. ephem.      SB431-BIG16  
   condition code      0  
   fit RMS      .52154  
   data source      ORB  
   producer      Otto Matic  
   solution date      2014-Nov-10 14:37:24  

Additional Information
 Earth MOID = 1.13708 AU 
 T_jup = 3.361 
[ show covariance matrix ]

Ephemeris | Orbit Diagram | Orbital Elements | Physical Parameters | Discovery Circumstances ]

Physical Parameter Table
Parameter Symbol Value Units Sigma Reference Notes
absolute magnitude H 13.5 mag n/a MPO270398  

52271 Lecorbusier           Discovered 1988 Sept. 8 by F. Börngen at Tautenburg.
Swiss-French Le Corbusier (1887-1965) was one of the most influential architects and city planners of the modern age. In his numerous writings he presented his new ideas and conceptions of form.
NOTE: some special characters may not display properly (any characters within {} are an attempt to place the proper accent above a character)
Reference: 20030501/MPCPages.arcLast Updated: 2003-10-02

Alternate Designations
 1988 RP3 = 1999 GH53 
Ephemeris | Orbit Diagram | Orbital Elements | Physical Parameters | Discovery Circumstances ]
ABOUT SSD CREDITS/AWARDS PRIVACY/COPYRIGHT GLOSSARY LINKS
FirstGov 2014-Dec-18 11:31 UT
(server date/time)  
NASA Home Page
Site Manager:   Donald K. Yeomans
Webmaster  Alan B. Chamberlin